WMT411 LATI-LIPH

Flight info

Callsign WMT411
Flight time 1h 18m
Altitude 36000
Route DIRES DCT EBELA DCT KOFER DCT VAKSU DCT AMUGO DCT PUL DCT LABIN/N0356F180 L614 CHI N503 INBUT
Aircraft A321/M-SDE1E2E3FGIJ1J4RWXY/LB1

Departure

Time 2026-05-06 11:22
Airport Tirana International Airport Mother Teresa (LATI)

Arrival

Time 2026-05-06 12:40
Airport Treviso Airport (LIPH)
Time Latitude Longitude Altitude Speed Heading
2026-05-06 10:58 41.41948 19.71525 122 ft 0 kts 268°
2026-05-06 11:08 41.41948 19.71526 123 ft 0 kts 268°
2026-05-06 11:15 41.41952 19.71556 118 ft 4 kts 233°
2026-05-06 11:15 41.41972 19.71575 120 ft 4 kts 187°
2026-05-06 11:16 41.41984 19.71576 119 ft 0 kts 174°
2026-05-06 11:17 41.41976 19.71577 120 ft 3 kts 174°
2026-05-06 11:17 41.41939 19.71581 120 ft 9 kts 174°
2026-05-06 11:18 41.41858 19.71592 124 ft 15 kts 174°
2026-05-06 11:18 41.41755 19.71606 122 ft 14 kts 174°
2026-05-06 11:18 41.41657 19.71619 124 ft 16 kts 174°
2026-05-06 11:18 41.41531 19.71634 125 ft 20 kts 174°
2026-05-06 11:19 41.41383 19.71655 127 ft 21 kts 173°
2026-05-06 11:19 41.41244 19.71675 129 ft 20 kts 174°
2026-05-06 11:19 41.41105 19.71694 126 ft 20 kts 174°
2026-05-06 11:19 41.40961 19.71715 128 ft 21 kts 172°
2026-05-06 11:20 41.40813 19.71749 132 ft 22 kts 170°
2026-05-06 11:20 41.40667 19.71778 132 ft 19 kts 159°
2026-05-06 11:20 41.40648 19.71903 132 ft 14 kts 82°
2026-05-06 11:20 41.40668 19.72034 132 ft 15 kts 77°
2026-05-06 11:21 41.40712 19.72147 134 ft 14 kts 24°
2026-05-06 11:21 41.40880 19.72137 133 ft 49 kts 354°
2026-05-06 11:21 41.41481 19.72056 125 ft 122 kts 354°
2026-05-06 11:21 41.42521 19.71919 207 ft 169 kts 354°
2026-05-06 11:22 41.43694 19.71746 931 ft 171 kts 353°
2026-05-06 11:22 41.44882 19.71580 1637 ft 174 kts 355°
2026-05-06 11:22 41.46158 19.71416 1960 ft 196 kts 355°
2026-05-06 11:22 41.47589 19.71232 2228 ft 218 kts 355°
2026-05-06 11:23 41.49182 19.71025 2475 ft 242 kts 355°
2026-05-06 11:23 41.50914 19.70580 2883 ft 265 kts 335°
2026-05-06 11:23 41.52375 19.69121 3672 ft 270 kts 306°
2026-05-06 11:23 41.53140 19.66869 4579 ft 268 kts 276°
2026-05-06 11:24 41.52981 19.64427 5443 ft 266 kts 247°
2026-05-06 11:24 41.51961 19.62413 6293 ft 265 kts 220°
2026-05-06 11:24 41.50471 19.60952 7085 ft 268 kts 215°
2026-05-06 11:24 41.48936 19.59520 7904 ft 271 kts 215°
2026-05-06 11:25 41.47386 19.58077 8702 ft 274 kts 215°
2026-05-06 11:25 41.45813 19.56609 9519 ft 277 kts 216°
2026-05-06 11:25 41.44222 19.55121 10276 ft 282 kts 216°
2026-05-06 11:25 41.42553 19.53560 10611 ft 304 kts 216°
2026-05-06 11:26 41.40764 19.51882 10885 ft 324 kts 216°
2026-05-06 11:26 41.38895 19.50129 11467 ft 332 kts 216°
2026-05-06 11:26 41.36998 19.48351 12157 ft 336 kts 216°
2026-05-06 11:26 41.35075 19.46550 12856 ft 340 kts 216°
2026-05-06 11:27 41.33128 19.44724 13568 ft 344 kts 216°
2026-05-06 11:27 41.31164 19.42882 14224 ft 347 kts 217°
2026-05-06 11:27 41.29175 19.41020 14836 ft 351 kts 217°
2026-05-06 11:27 41.27167 19.39142 15462 ft 355 kts 217°
2026-05-06 11:28 41.25140 19.37250 16098 ft 358 kts 217°
2026-05-06 11:28 41.23089 19.35338 16738 ft 361 kts 217°
2026-05-06 11:28 41.21050 19.33436 17378 ft 365 kts 218°
2026-05-06 11:28 41.18965 19.31493 17985 ft 368 kts 218°
2026-05-06 11:29 41.16859 19.29530 18585 ft 371 kts 218°
2026-05-06 11:29 41.14738 19.27555 19130 ft 374 kts 218°
2026-05-06 11:29 41.12600 19.25571 19689 ft 377 kts 218°
2026-05-06 11:29 41.10556 19.23407 20227 ft 376 kts 230°
2026-05-06 11:30 41.09118 19.20546 20747 ft 373 kts 249°
2026-05-06 11:30 41.08504 19.17232 21290 ft 372 kts 268°
2026-05-06 11:30 41.08770 19.13831 21836 ft 374 kts 286°
2026-05-06 11:30 41.09874 19.10698 22375 ft 379 kts 300°
2026-05-06 11:31 41.11292 19.07740 22918 ft 382 kts 300°
2026-05-06 11:31 41.12725 19.04762 23459 ft 384 kts 300°
2026-05-06 11:31 41.14162 19.01765 23927 ft 386 kts 300°
2026-05-06 11:31 41.15605 18.98743 24344 ft 389 kts 300°
2026-05-06 11:32 41.17104 18.95735 24745 ft 393 kts 305°
2026-05-06 11:32 41.18986 18.93070 25147 ft 400 kts 316°
2026-05-06 11:32 41.21273 18.90925 25527 ft 407 kts 327°
2026-05-06 11:32 41.23889 18.89409 25919 ft 415 kts 339°
2026-05-06 11:33 41.26697 18.88440 26306 ft 419 kts 342°
2026-05-06 11:33 41.29537 18.87509 26705 ft 422 kts 342°
2026-05-06 11:33 41.32396 18.86573 27080 ft 424 kts 342°
2026-05-06 11:33 41.35270 18.85628 27457 ft 427 kts 342°
2026-05-06 11:34 41.38156 18.84668 27835 ft 429 kts 342°
2026-05-06 11:34 41.41063 18.83697 28205 ft 432 kts 342°
2026-05-06 11:34 41.43985 18.82721 28573 ft 434 kts 342°
2026-05-06 11:34 41.46887 18.81754 28942 ft 437 kts 342°
2026-05-06 11:35 41.49845 18.80769 29298 ft 439 kts 342°
2026-05-06 11:35 41.52821 18.79776 29642 ft 442 kts 342°
2026-05-06 11:35 41.55811 18.78773 29984 ft 444 kts 342°
2026-05-06 11:35 41.58822 18.77763 30296 ft 447 kts 342°
2026-05-06 11:36 41.61846 18.76751 30586 ft 449 kts 342°
2026-05-06 11:36 41.64886 18.75732 30881 ft 451 kts 342°
2026-05-06 11:36 41.67942 18.74706 31201 ft 454 kts 342°
2026-05-06 11:36 41.71010 18.73677 31491 ft 456 kts 342°
2026-05-06 11:37 41.74082 18.72649 31900 ft 455 kts 342°
2026-05-06 11:37 41.77153 18.71627 32320 ft 454 kts 342°
2026-05-06 11:37 41.80211 18.70603 32738 ft 453 kts 342°
2026-05-06 11:37 41.83263 18.69577 33154 ft 452 kts 342°
2026-05-06 11:38 41.86310 18.68548 33564 ft 451 kts 342°
2026-05-06 11:38 41.89284 18.67291 33979 ft 446 kts 333°
2026-05-06 11:38 41.92033 18.65434 34319 ft 440 kts 324°
2026-05-06 11:38 41.94499 18.63043 34649 ft 435 kts 315°
2026-05-06 11:39 41.96645 18.60208 34985 ft 430 kts 307°
2026-05-06 11:39 41.98583 18.57158 35316 ft 429 kts 307°
2026-05-06 11:39 42.00522 18.54105 35660 ft 429 kts 307°
2026-05-06 11:39 42.02440 18.51042 35987 ft 428 kts 306°
2026-05-06 11:40 42.04294 18.47917 36088 ft 425 kts 304°
2026-05-06 11:40 42.07913 18.41484 36092 ft 437 kts 303°
2026-05-06 11:41 42.11574 18.34880 36091 ft 442 kts 303°
2026-05-06 11:41 42.15292 18.28279 36100 ft 442 kts 304°
2026-05-06 11:42 42.19033 18.21691 36093 ft 443 kts 304°
2026-05-06 11:42 42.22774 18.15086 36093 ft 443 kts 304°
2026-05-06 11:43 42.26502 18.08472 36099 ft 443 kts 304°
2026-05-06 11:43 42.30227 18.01843 36100 ft 443 kts 304°
2026-05-06 11:44 42.35810 17.91862 36104 ft 444 kts 304°
2026-05-06 11:44 42.39506 17.85241 36100 ft 444 kts 304°
2026-05-06 11:45 42.43230 17.78568 36110 ft 444 kts 304°
2026-05-06 11:45 42.46954 17.71889 36107 ft 445 kts 303°
2026-05-06 11:46 42.50674 17.65189 36102 ft 445 kts 303°
2026-05-06 11:46 42.54400 17.58501 36088 ft 446 kts 307°
2026-05-06 11:47 42.58614 17.52277 36087 ft 448 kts 309°
2026-05-06 11:47 42.62841 17.46075 36085 ft 448 kts 309°
2026-05-06 11:48 42.67053 17.39846 36087 ft 448 kts 309°
2026-05-06 11:48 42.71268 17.33610 36099 ft 448 kts 309°
2026-05-06 11:49 42.75482 17.27366 36084 ft 448 kts 309°
2026-05-06 11:49 42.79701 17.21117 36080 ft 448 kts 309°
2026-05-06 11:50 42.83910 17.14863 36073 ft 448 kts 309°
2026-05-06 11:50 42.88111 17.08598 36077 ft 448 kts 309°
2026-05-06 11:51 42.92312 17.02334 36075 ft 448 kts 309°
2026-05-06 11:51 42.96516 16.96045 36077 ft 449 kts 309°
2026-05-06 11:52 43.00015 16.90805 36065 ft 449 kts 309°
2026-05-06 11:52 43.04227 16.84497 36077 ft 450 kts 309°
2026-05-06 11:53 43.08378 16.78250 36087 ft 450 kts 308°
2026-05-06 11:53 43.12468 16.72076 36092 ft 450 kts 308°
2026-05-06 11:54 43.16667 16.65720 36109 ft 450 kts 308°
2026-05-06 11:54 43.20876 16.59350 36114 ft 451 kts 308°
2026-05-06 11:55 43.25086 16.52965 36105 ft 451 kts 308°
2026-05-06 11:55 43.29292 16.46566 36093 ft 451 kts 308°
2026-05-06 11:56 43.33494 16.40150 36081 ft 452 kts 308°
2026-05-06 11:56 43.37692 16.33731 36057 ft 452 kts 307°
2026-05-06 11:57 43.41893 16.27297 36055 ft 452 kts 307°
2026-05-06 11:57 43.46091 16.20850 36066 ft 452 kts 307°
2026-05-06 11:58 43.50285 16.14400 36051 ft 452 kts 307°
2026-05-06 11:58 43.54460 16.07942 36050 ft 451 kts 307°
2026-05-06 11:59 43.58637 16.01485 36038 ft 451 kts 307°
2026-05-06 11:59 43.62785 15.95070 36028 ft 451 kts 307°
2026-05-06 12:00 43.66964 15.88595 36016 ft 451 kts 307°
2026-05-06 12:00 43.71129 15.82102 36023 ft 452 kts 307°
2026-05-06 12:01 43.75297 15.75597 36017 ft 452 kts 307°
2026-05-06 12:01 43.79464 15.69081 36019 ft 452 kts 307°
2026-05-06 12:02 43.83629 15.62552 36038 ft 453 kts 306°
2026-05-06 12:02 43.87796 15.56006 36027 ft 453 kts 306°
2026-05-06 12:03 43.91961 15.49449 36023 ft 453 kts 306°
2026-05-06 12:03 43.96120 15.42885 36025 ft 453 kts 306°
2026-05-06 12:04 44.00280 15.36305 36025 ft 453 kts 306°
2026-05-06 12:04 44.04425 15.29722 36040 ft 453 kts 306°
2026-05-06 12:05 44.08567 15.23131 36031 ft 453 kts 306°
2026-05-06 12:05 44.12722 15.16537 36025 ft 453 kts 306°
2026-05-06 12:06 44.16872 15.09924 36020 ft 453 kts 306°
2026-05-06 12:06 44.21009 15.03291 36029 ft 453 kts 306°
2026-05-06 12:07 44.25137 14.96669 36018 ft 452 kts 305°
2026-05-06 12:07 44.29263 14.90047 36012 ft 452 kts 305°
2026-05-06 12:08 44.33357 14.83456 36011 ft 452 kts 305°
2026-05-06 12:08 44.37472 14.76799 36009 ft 453 kts 305°
2026-05-06 12:09 44.41589 14.70130 36011 ft 453 kts 305°
2026-05-06 12:09 44.45707 14.63452 36016 ft 453 kts 305°
2026-05-06 12:10 44.49820 14.56763 36013 ft 453 kts 305°
2026-05-06 12:10 44.53928 14.50071 36017 ft 453 kts 305°
2026-05-06 12:11 44.58037 14.43357 36033 ft 453 kts 304°
2026-05-06 12:11 44.62141 14.36632 36024 ft 454 kts 304°
2026-05-06 12:12 44.66239 14.29898 36010 ft 454 kts 304°
2026-05-06 12:12 44.70335 14.23150 36012 ft 453 kts 304°
2026-05-06 12:13 44.74250 14.16690 36006 ft 453 kts 304°
2026-05-06 12:13 44.78278 14.10055 35979 ft 434 kts 304°
2026-05-06 12:14 44.82170 14.03623 35975 ft 430 kts 303°
2026-05-06 12:14 44.86023 13.97187 35975 ft 429 kts 302°
2026-05-06 12:15 44.87735 13.93789 35855 ft 422 kts 294°
2026-05-06 12:15 44.89014 13.90112 35597 ft 414 kts 285°
2026-05-06 12:15 44.89855 13.86264 35345 ft 408 kts 276°
2026-05-06 12:15 44.90342 13.82343 35121 ft 406 kts 273°
2026-05-06 12:16 44.90793 13.78397 34515 ft 410 kts 273°
2026-05-06 12:16 44.91248 13.74490 34090 ft 407 kts 273°
2026-05-06 12:16 44.91708 13.70569 33610 ft 404 kts 273°
2026-05-06 12:16 44.92161 13.66685 33156 ft 399 kts 273°
2026-05-06 12:17 44.92605 13.62844 32703 ft 394 kts 273°
2026-05-06 12:17 44.93041 13.59046 32253 ft 389 kts 273°
2026-05-06 12:17 44.93469 13.55301 31809 ft 385 kts 273°
2026-05-06 12:17 44.93888 13.51596 31357 ft 380 kts 274°
2026-05-06 12:18 44.94301 13.47931 30924 ft 376 kts 274°
2026-05-06 12:18 44.94709 13.44301 30498 ft 373 kts 273°
2026-05-06 12:18 44.95112 13.40712 30058 ft 369 kts 273°
2026-05-06 12:18 44.95511 13.37147 29592 ft 365 kts 273°
2026-05-06 12:19 44.95900 13.33635 29184 ft 360 kts 273°
2026-05-06 12:19 44.96284 13.30166 28799 ft 356 kts 273°
2026-05-06 12:19 44.96665 13.26733 28396 ft 352 kts 273°
2026-05-06 12:19 44.97042 13.23330 27995 ft 349 kts 273°
2026-05-06 12:20 44.97414 13.19961 27619 ft 345 kts 273°
2026-05-06 12:20 44.97779 13.16622 27250 ft 342 kts 273°
2026-05-06 12:20 44.98139 13.13327 26879 ft 338 kts 273°
2026-05-06 12:20 44.98500 13.10059 26507 ft 335 kts 273°
2026-05-06 12:21 44.98857 13.06818 26136 ft 332 kts 272°
2026-05-06 12:21 44.99206 13.03607 25766 ft 330 kts 272°
2026-05-06 12:21 44.99550 13.00412 25399 ft 328 kts 272°
2026-05-06 12:21 44.99892 12.97227 25035 ft 327 kts 272°
2026-05-06 12:22 45.00231 12.94061 24656 ft 326 kts 272°
2026-05-06 12:22 45.00567 12.90897 24292 ft 325 kts 272°
2026-05-06 12:22 45.00900 12.87743 23917 ft 324 kts 272°
2026-05-06 12:22 45.01235 12.84595 23532 ft 323 kts 272°
2026-05-06 12:23 45.01572 12.81459 23112 ft 322 kts 272°
2026-05-06 12:23 45.01905 12.78337 22722 ft 321 kts 272°
2026-05-06 12:23 45.02234 12.75226 22321 ft 319 kts 273°
2026-05-06 12:23 45.02561 12.72134 21922 ft 317 kts 273°
2026-05-06 12:24 45.02885 12.69059 21523 ft 315 kts 272°
2026-05-06 12:24 45.03207 12.66009 21126 ft 313 kts 272°
2026-05-06 12:24 45.03527 12.62977 20737 ft 311 kts 272°
2026-05-06 12:24 45.03844 12.59951 20342 ft 309 kts 273°
2026-05-06 12:25 45.04154 12.56991 19953 ft 308 kts 273°
2026-05-06 12:25 45.04465 12.54006 19562 ft 306 kts 273°
2026-05-06 12:25 45.04780 12.50993 19173 ft 306 kts 273°
2026-05-06 12:25 45.05083 12.48052 18775 ft 307 kts 273°
2026-05-06 12:26 45.05392 12.45061 18386 ft 307 kts 273°
2026-05-06 12:26 45.05699 12.42081 17964 ft 306 kts 273°
2026-05-06 12:26 45.06004 12.39110 17553 ft 305 kts 273°
2026-05-06 12:26 45.06308 12.36154 17163 ft 303 kts 273°
2026-05-06 12:27 45.06612 12.33216 16788 ft 301 kts 274°
2026-05-06 12:27 45.07172 12.30339 16392 ft 308 kts 287°
2026-05-06 12:27 45.08227 12.27665 15979 ft 316 kts 301°
2026-05-06 12:27 45.09748 12.25367 15566 ft 325 kts 315°
2026-05-06 12:28 45.11573 12.23423 15140 ft 330 kts 318°
2026-05-06 12:28 45.13419 12.21481 14715 ft 330 kts 318°
2026-05-06 12:28 45.15258 12.19539 14288 ft 330 kts 318°
2026-05-06 12:28 45.17093 12.17594 13863 ft 329 kts 318°
2026-05-06 12:29 45.18925 12.15650 13405 ft 328 kts 318°
2026-05-06 12:29 45.20747 12.13718 12979 ft 326 kts 318°
2026-05-06 12:29 45.22556 12.11796 12559 ft 323 kts 318°
2026-05-06 12:29 45.24348 12.09886 12146 ft 321 kts 318°
2026-05-06 12:30 45.26122 12.07986 11740 ft 318 kts 318°
2026-05-06 12:30 45.27882 12.06103 11362 ft 316 kts 319°
2026-05-06 12:30 45.29633 12.04236 10976 ft 314 kts 318°
2026-05-06 12:30 45.31376 12.02383 10591 ft 312 kts 318°
2026-05-06 12:31 45.33107 12.00545 10207 ft 309 kts 318°
2026-05-06 12:31 45.34813 11.98736 9963 ft 301 kts 318°
2026-05-06 12:31 45.36473 11.96972 9687 ft 296 kts 318°
2026-05-06 12:31 45.38102 11.95234 9408 ft 291 kts 318°
2026-05-06 12:32 45.39714 11.93510 9042 ft 288 kts 318°
2026-05-06 12:32 45.41310 11.91802 8666 ft 286 kts 318°
2026-05-06 12:32 45.42896 11.90102 8259 ft 285 kts 318°
2026-05-06 12:32 45.44481 11.88398 7847 ft 286 kts 318°
2026-05-06 12:33 45.46068 11.86689 7434 ft 286 kts 318°
2026-05-06 12:33 45.47500 11.85147 7051 ft 276 kts 318°
2026-05-06 12:33 45.48984 11.83554 6677 ft 259 kts 318°
2026-05-06 12:33 45.50392 11.82064 6317 ft 246 kts 322°
2026-05-06 12:34 45.51964 11.81237 6000 ft 240 kts 351°
2026-05-06 12:34 45.53586 11.81561 5683 ft 245 kts 22°
2026-05-06 12:34 45.54949 11.83048 5308 ft 244 kts 55°
2026-05-06 12:34 45.55684 11.85196 4949 ft 241 kts 70°
2026-05-06 12:35 45.56283 11.87406 4620 ft 237 kts 70°
2026-05-06 12:35 45.56882 11.89597 4211 ft 237 kts 70°
2026-05-06 12:35 45.57474 11.91752 3870 ft 235 kts 71°
2026-05-06 12:35 45.58058 11.93906 3568 ft 230 kts 71°
2026-05-06 12:36 45.58620 11.96007 3271 ft 224 kts 71°
2026-05-06 12:36 45.59167 11.98052 3066 ft 214 kts 71°
2026-05-06 12:36 45.59674 11.99970 2860 ft 202 kts 70°
2026-05-06 12:36 45.60158 12.01804 2524 ft 191 kts 72°
2026-05-06 12:37 45.60617 12.03526 2256 ft 179 kts 71°
2026-05-06 12:37 45.61048 12.05138 2040 ft 167 kts 71°
2026-05-06 12:37 45.61439 12.06598 1823 ft 150 kts 71°
2026-05-06 12:37 45.61804 12.07970 1617 ft 145 kts 70°
2026-05-06 12:38 45.62160 12.09306 1416 ft 143 kts 71°
2026-05-06 12:38 45.62513 12.10629 1218 ft 142 kts 71°
2026-05-06 12:38 45.62864 12.11946 1021 ft 141 kts 71°
2026-05-06 12:38 45.63213 12.13256 822 ft 141 kts 71°
2026-05-06 12:39 45.63561 12.14563 636 ft 141 kts 71°
2026-05-06 12:39 45.63908 12.15866 425 ft 140 kts 71°
2026-05-06 12:39 45.64140 12.16743 280 ft 138 kts 71°
2026-05-06 12:39 45.64484 12.18020 111 ft 140 kts 71°
2026-05-06 12:40 45.64793 12.19198 59 ft 102 kts 69°
2026-05-06 12:40 45.64980 12.19929 56 ft 60 kts 69°
2026-05-06 12:40 45.65103 12.20183 55 ft 22 kts 38°
2026-05-06 12:40 45.65184 12.20253 54 ft 0 kts 28°
2026-05-06 12:41 45.65184 12.20252 54 ft 0 kts 28°
2026-05-06 12:42 45.65187 12.20255 55 ft 3 kts 28°
2026-05-06 12:42 45.65235 12.20292 56 ft 12 kts 28°
2026-05-06 12:43 45.65285 12.20347 57 ft 7 kts 49°
2026-05-06 12:43 45.65313 12.20391 55 ft 1 kts 22°
2026-05-06 12:43 45.65328 12.20390 62 ft 4 kts
2026-05-06 12:43 45.65360 12.20379 59 ft 5 kts 339°